Meteo Giornale » Osservazioni meteo Stati Uniti (USA) » Providence Green State

ore: 14:20 - Osservazioni Meteo Providence Green State
Lat. 41° 43' N Lon. 71° 25' W Alt. 16 metri s.l.m.

coperto_pioggia

17 °C

Pioggia Foschia

Temp. 24 Ore

17 °C

24 °C

Est

13 Km/h

Dew point 16 °C

Umidità 93 %

Visibilità  3 Km

Il sole sorge alle ore 06:11

Il sole tramonta alle ore 19:19

Data e Ora Cielo e Fenomeni T °C DP °C Um. % Pres. hPa Vis. km Vento km/h
Oggi h: 14:20 coperto_pioggia Pioggia Foschia 17 16 93 1017 3 E 13
Oggi h: 14:09 coperto_pioggia Pioggia Foschia 17 16 93 1017 3 E/SE 11.1
Oggi h: 13:51 coperto_pioggia Pioggia Foschia 17 16 93 1017 8 E/SE 13
Oggi h: 13:00 coperto Coperto 17 15 88 1017 10 E/SE 11.1
Oggi h: 12:51 coperto Coperto 17 16 93 1017 10 E/SE 13
Oggi h: 11:51 coperto_pioggia Pioggia 17 16 93 1018 11 E/SE 16.7
Oggi h: 11:47 coperto_pioggia Pioggia 17 16 93 1018 6 E/SE 20.3
Oggi h: 11:40 coperto_pioggia Pioggia Foschia 17 16 93 1018 2 E/SE 16.7
Oggi h: 11:21 coperto_pioggia Pioggia Foschia 18 17 93 1018 5 E/SE 13
Oggi h: 10:51 coperto_pioggia Pioggia Foschia 18 17 93 1018 8 E/SE 11.1
Oggi h: 10:44 coperto_pioggia Pioggia Foschia 18 17 93 1018 8 E/SE 13
Oggi h: 10:01 coperto_pioggia Pioggia Foschia 20 19 93 1018 2 N 5.5
Oggi h: 09:51 coperto_pioggia Pioggia Foschia 20 19 93 1018 3 N 0
Oggi h: 08:51 coperto_pioggia Pioggia Foschia 20 18 88 1017 6 SE 7.4
Oggi h: 07:51 coperto Coperto 21 18 82 1017 10 SE 7.4
Oggi h: 07:37 coperto Coperto 21 18 82 1017 10 SE 9.3
Oggi h: 06:51 coperto Coperto 21 18 82 1017 10 N 5.5
Oggi h: 05:51 coperto Coperto 20 17 82 1017 10 N 0
Oggi h: 04:51 coperto Coperto 20 18 88 1017 10 N 0
Oggi h: 03:51 coperto Coperto 20 17 82 1018 10 N 0
Oggi h: 02:51 coperto Coperto 20 17 82 1017 10 N 0
Oggi h: 01:51 coperto Coperto 20 17 82 1018 10 SO 9.3
Oggi h: 00:51 coperto Coperto 20 17 82 1018 10 N 5.5
Ieri h: 23:51 coperto Coperto 20 17 82 1019 10 O/SO 7.4
Ieri h: 22:51 coperto Coperto 20 17 82 1019 10 N 0
Ieri h: 21:51 coperto Coperto 20 17 82 1019 10 S/SO 9.3
Ieri h: 20:51 coperto Coperto 21 17 77 1019 10 S 9.3
Ieri h: 19:51 molto_nuvoloso Molto Nuvoloso 21 17 77 1019 10 S 13
Ieri h: 18:51 molto_nuvoloso Molto Nuvoloso 21 17 77 1019 10 S 13
Ieri h: 17:51 molto_nuvoloso Molto Nuvoloso 22 16 68 1019 10 S 11.1
Ieri h: 16:51 molto_nuvoloso Molto Nuvoloso 23 16 64 1019 10 S 16.7
Ieri h: 15:51 nuvoloso Nuvoloso 23 17 68 1019 10 S 16.7
Ieri h: 14:51 nuvoloso Nuvoloso 24 14 53 1019 10 SE 14.8